Regional Weather Roundup
Issued by NWS

Home | Current Version | Previous Version | Text Only | Print | Product List | Glossary On
Versions: 1 2 3 4 5 6 7 8 9 10 11 12 13 14 15 16 17 18 19 20 21 22 23 24 25 26 27 28 29 30 31 32 33 34 35 36 37 38 39 40 41 42 43 44 45 46 47 48 49 50
000
ASPQ40 PGUM 240912
RWRPQ
WEATHER ROUNDUP FOR THE MARIANAS AND MICRONESIA
NATIONAL WEATHER SERVICE TIYAN GU
700 PM CHST FRI MAR 24 2017

GUZ001>004-241000-
MARIANA ISLANDS-

CITY           SKY/WX    TMP DP  RH WIND       PRES   REMARKS
GUAM AIRPORT   PTCLDY    82  75  78 E9        29.95R
ANDERSEN AFB   PTCLDY    79  73  83 E12       29.96R
ROTA AIRPORT   PTCLDY    79  73  83 E8        29.96R
TINIAN AP      PTCLDY    79  73  83 NE9       29.94R
SAIPAN AP      PTCLDY    79  73  83 NE14      29.95R

$$

PMZ161-241000-
REPUBLIC OF PALAU-

CITY           SKY/WX    TMP DP  RH WIND       PRES   REMARKS
KOROR AP       MOCLDY    82  75  78 NE5       29.84R
KOROR WSO      MOCLDY    84  75  74 NE6       29.84S HX  92

$$

PMZ171>174-241000-
FEDERATED STATES OF MICRONESIA-

CITY           SKY/WX    TMP DP  RH WIND       PRES   REMARKS
YAP AIRPORT    MOCLDY    82  75  78 VRB7      29.85R
CHUUK AP       MOCLDY    82  79  89 NE8       29.86R HX  93
POHNPEI AP     NOT AVBL
POHNPEI WSO    PTCLDY    82  75  78 NE8       29.90R
KOSRAE AP      NOT AVBL

$$

PMZ181-241000-
REPUBLIC OF THE MARSHALL ISLANDS-

CITY           SKY/WX    TMP DP  RH WIND       PRES   REMARKS
KWAJALEIN AP   CLEAR     82  73  74 E16       29.90R
MAJURO AP      MOCLDY    82  75  78 NE17      29.86R
MAJURO WSO     MOCLDY    84  77  79 NE13      29.84R HX  94

$$




USA.gov is the U.S. government's official web portal to all federal, state and local government web resources and services.